User: anonymous   Login
Location: Unspecified
(0.0000°N, 0.0000°E)
Time: 09:18:00
(UTC+00:00)
Language:

STMSAT 1 - Orbit

View from above orbital plane
View from above orbital plane
View from above satellite
View from above satellite

Ground track
Ground track

The orbit data is extracted from the following two-line orbital elements,

1 41476U 98067HW  17086.36393908 +.00218929 +28995-4 +65859-3 0  9999
2 41476 051.6321 054.3901 0005210 105.0400 255.1183 15.91804429049306
Epoch (UTC): 27 March 2017 08:44:04
Eccentricity: 0.0005210
inclination: 51.6321°
perigee height: 294 km
apogee height: 301 km
right ascension of ascending node: 54.3901°
argument of perigee: 105.0400°
revolutions per day: 15.91804429
mean anomaly at epoch: 255.1183°
orbit number at epoch: 4930

The dashed part of the orbit path shows where the satellite is in the earth's shadow,  

DLR